Weather History for Sheridan, WY

Change the Weather History Date:

Saturday, March 29, 2014

  Actual Average Record
Temperature  
Mean Temperature 49 °F 39 °F  
Max Temperature 67 °F 52 °F 77 °F (1978)
Min Temperature 30 °F 26 °F -10 °F (1987)
Degree Days  
Heating Degree Days 16 26  
Month to date heating degree days 926 873  
Since 1 July heating degree days 6676 6408  
Cooling Degree Days 0 0  
Month to date cooling degree days 0 0  
Year to date cooling degree days 0 0  
Moisture  
Dew Point 26 °F    
Average Humidity 48    
Maximum Humidity 78    
Minimum Humidity 18    
Precipitation  
Precipitation 0.00 in 0.04 in 0.67 in (1977)
Month to date precipitation 1.46 0.90  
Year to date precipitation 3.31 2.00  
Sea Level Pressure  
Sea Level Pressure 29.79 in    
Wind  
Wind Speed 11 mph (WSW)    
Max Wind Speed 36 mph    
Max Gust Speed 43 mph    
Visibility 10 miles    
Events      
T = Trace of Precipitation, MM = Missing Value Source: NWS Daily Summary

Daily Weather History Graph

Daily Weather History Graph

Search for Another Location

Airport:

Trip Planner

Search our weather history database for the weather conditions in past years. The results will help you decide how hot, cold, wet, or windy it might be!

Date:

Astronomy

Mar. 29, 2014 Rise Set
Actual Time 6:54 AM MDT 7:31 PM MDT
Civil Twilight 6:24 AM MDT 8:01 PM MDT
Nautical Twilight 5:49 AM MDT 8:36 PM MDT
Astronomical Twilight 5:13 AM MDT 9:12 PM MDT
Moon 6:07 AM MDT (3/29) 6:38 PM MDT (3/29)
Length of Visible Light 13h 36m
Length of Day
12h 37m
Waning Crescent, 1% of the Moon is Illuminated
Mar 29
Waning Crescent
Mar 30
New
Apr 7
First Quarter
Apr 15
Full
Apr 22
Last Quarter

Hourly Weather History & Observations

Time (MDT) Temp. Windchill Dew Point Humidity Pressure Visibility Wind Dir Wind Speed Gust Speed Precip Events Conditions
12:53 AM 30.9 °F 26.2 °F 23.0 °F 72% 29.96 in 10.0 mi North 4.6 mph - N/A   Clear
1:53 AM 33.1 °F 27.7 °F 24.1 °F 70% 29.94 in 10.0 mi North 5.8 mph - N/A   Clear
2:53 AM 30.9 °F - 24.1 °F 76% 29.92 in 10.0 mi Calm Calm - N/A   Clear
3:53 AM 37.9 °F 31.5 °F 21.9 °F 53% 29.86 in 10.0 mi SSW 9.2 mph - N/A   Clear
4:53 AM 33.1 °F 30.0 °F 24.1 °F 70% 29.86 in 10.0 mi Variable 3.5 mph - N/A   Clear
5:53 AM 33.1 °F 25.5 °F 24.1 °F 70% 29.85 in 10.0 mi NE 9.2 mph - N/A   Clear
6:53 AM 34.0 °F 27.2 °F 23.0 °F 64% 29.86 in 10.0 mi North 8.1 mph - N/A   Clear
7:53 AM 48.9 °F - 21.9 °F 35% 29.81 in 10.0 mi SW 15.0 mph - N/A   Clear
8:53 AM 55.9 °F - 21.9 °F 27% 29.78 in 10.0 mi SW 10.4 mph - N/A   Clear
9:53 AM 60.1 °F - 23.0 °F 24% 29.77 in 10.0 mi SSW 13.8 mph - N/A   Clear
10:53 AM 63.0 °F - 21.9 °F 21% 29.73 in 10.0 mi WSW 18.4 mph 25.3 mph N/A   Clear
11:53 AM 63.0 °F - 19.9 °F 19% 29.72 in 10.0 mi WSW 17.3 mph 20.7 mph N/A   Clear
12:53 PM 63.0 °F - 21.0 °F 20% 29.73 in 10.0 mi SSW 9.2 mph - N/A   Clear
1:53 PM 64.0 °F - 19.9 °F 18% 29.70 in 10.0 mi NNW 4.6 mph - N/A   Mostly Cloudy
2:53 PM 66.9 °F - 21.9 °F 18% 29.68 in 10.0 mi West 12.7 mph 19.6 mph N/A   Clear
3:53 PM 63.0 °F - 21.9 °F 21% 29.66 in 10.0 mi SW 10.4 mph 18.4 mph N/A   Partly Cloudy
4:53 PM 63.0 °F - 25.0 °F 24% 29.68 in 10.0 mi West 18.4 mph - N/A   Clear
5:37 PM 61.0 °F - 28.0 °F 29% 29.69 in 10.0 mi West 20.7 mph 26.5 mph N/A   Clear
5:53 PM 59.0 °F - 30.0 °F 33% 29.72 in 10.0 mi WNW 35.7 mph 42.6 mph N/A   Scattered Clouds
6:53 PM 50.0 °F - 34.0 °F 54% 29.79 in 10.0 mi NW 23.0 mph - N/A   Clear
7:53 PM 45.0 °F 41.2 °F 34.0 °F 65% 29.81 in 10.0 mi WNW 6.9 mph - N/A   Scattered Clouds
8:53 PM 45.0 °F 43.5 °F 34.0 °F 65% 29.82 in 10.0 mi South 3.5 mph - N/A   Clear
9:53 PM 45.0 °F 37.9 °F 34.0 °F 65% 29.81 in 10.0 mi NW 16.1 mph - N/A   Mostly Cloudy
10:53 PM 41.0 °F 39.0 °F 34.0 °F 76% 29.81 in 10.0 mi SSE 3.5 mph - N/A   Mostly Cloudy
11:53 PM 42.1 °F 39.2 °F 35.1 °F 76% 29.83 in 10.0 mi South 4.6 mph - N/A   Overcast